Regional Weather Roundup
Issued by NWS

Home | Current Version | Previous Version | Text Only | Print | Product List | Glossary On
Versions: 1 2 3 4 5 6 7 8 9 10 11 12 13 14 15 16 17 18 19 20 21 22 23 24 25 26 27 28 29 30 31 32 33 34 35 36 37 38 39 40 41 42 43 44 45 46 47 48 49 50
000
ASMX46 KSGX 181011
RWRMX

MEXICAN WEATHER ROUNDUP
NATIONAL WEATHER SERVICE SAN DIEGO CA
200 AM PST THU JAN 18 2018

BAJA CALIFORNIA

CITY           SKY/WX    TMP DP  RH WIND       PRES   REMARKS
ENSENADA NW      N/A     55  32  42 CALM      30.03S
S.J. DEL CABO    N/A    N/A N/A N/A MISG        N/A
TIJUANA        PTCLDY    55  43  62 CALM      30.11F

NORTHWESTERN MEXICO

CITY           SKY/WX    TMP DP  RH WIND       PRES   REMARKS
CULIACAN       CLEAR     55  46  71 CALM      29.99
HERMOSILLO     CLEAR     55  41  58 CALM      30.05

NORTHEASTERN MEXICO

CITY           SKY/WX    TMP DP  RH WIND       PRES   REMARKS
MONCLOVA         N/A    N/A N/A N/A MISG        N/A
MONTERREY      CLOUDY    32  27  80 CALM      30.46F
REYNOSA          N/A    N/A N/A N/A MISG        N/A
VICTORIA         N/A    N/A N/A N/A MISG        N/A

WESTERN MEXICO

CITY           SKY/WX    TMP DP  RH WIND       PRES   REMARKS
AGUASCALIENTES   N/A    N/A N/A N/A MISG        N/A
COLIMA           N/A    N/A N/A N/A MISG        N/A
GUADALAJARA    CLEAR     45  37  76 CALM      30.23
MAZATLAN       CLEAR     54  54 100 NE5       30.01F
PTO. VALLARTA  CLEAR     61  61 100 NE2       30.00S
TEPIC            N/A    N/A N/A N/A MISG        N/A
URUAPAN          N/A    N/A N/A N/A MISG        N/A
ZACATECAS      CLEAR     30  25  80 CALM      30.30F

CENTRAL MEXICO

CITY           SKY/WX    TMP DP  RH WIND       PRES   REMARKS
CUERNAVACA       N/A    N/A N/A N/A MISG        N/A
LEON           PTCLDY    43  36  75 NE9       30.37S
MEXICO CITY    CLEAR     43  34  70 E5        30.40F
MORELIA        CLEAR     39  32  75 CALM      30.31
POZA RICA        N/A    N/A N/A N/A MISG        N/A
S. LUIS POTOSI   N/A    N/A N/A N/A MISG        N/A
TOLUCA         MOCLDY    32  28  86 CALM      30.40F
VERACRUZ         N/A    N/A N/A N/A MISG        N/A

SOUTHERN MEXICO

CITY           SKY/WX    TMP DP  RH WIND       PRES   REMARKS
ACAPULCO       MOCLDY    73  70  88 N6        29.95F
B. DE HUATULCO   N/A    N/A N/A N/A MISG        N/A
MINATITLAN       N/A    N/A N/A N/A MISG        N/A
PTO. ESCONDIDO   N/A    N/A N/A N/A MISG        N/A
TAPACHULA      CLEAR     68  66  94 CALM      29.92F

YUCATAN PENINSULA

CITY           SKY/WX    TMP DP  RH WIND       PRES   REMARKS
CAMPECHE         N/A    N/A N/A N/A MISG        N/A
CANCUN         LGT RAIN  66  64  94 N9        30.20R
CHETUMAL       PTCLDY    66  63  88 N7        30.17
C. DEL CARMEN    N/A    N/A N/A N/A MISG        N/A
COZUMEL        RAIN      68  68 100 N5        30.18R
MERIDA         MOCLDY    68  61  77 NE3       30.24S

$$





USA.gov is the U.S. government's official web portal to all federal, state and local government web resources and services.